Simultaneous Nadir Overpasses (SNOs) Predictions

Prediction of SNOs over PacNW region [( 10.00, 139.50) to ( 22.70, 165.60)] between AQUA and NPP Satellites:

Table of predicted SNOs over PacNW region for the next 30.0 days since TLE Epoch: 4/12/2013
Index Date (AQUA) Time (AQUA) AQUA Lat,Lon Date (NPP) Time (NPP) NPP Lat,Lon Distance(km) Time Diff (sec)
1 04/19/2013 16:00:22 22.61, 147.37 04/19/2013 16:01:15 23.25, 144.42 309.96 53
2 04/27/2013 15:10:59 21.92, 159.61 04/27/2013 15:10:47 22.47, 156.91 284.04 12
3 05/05/2013 15:59:58 22.63, 147.49 05/05/2013 16:01:20 23.30, 144.44 321.06 82




NCC Satellite Simultaneous Nadir Overpasses (SNOs) Prediction Service
